Location: *
(10.5081°N, 66.9194°W)
Time: 04:45:20
(UTC+00:00)

SL-08 R/B - Pass Details

Date: 30 March 2020
Orbit: 947 x 992 km, 83.0° (Epoch: 24 May)

Event Time Altitude Azimuth Distance (km) Brightness Sun altitude
Rises 23:27:20 0° 358° (N) 3,651 7.6 -12.8°
Reaches altitude 10° 23:29:50 10° 359° (N) 2,711 6.9 -13.4°
Maximum altitude 23:36:03 81° 87° (E) 993 4.4 -14.9°
Drops below altitude 10° 23:42:21 10° 174° (S) 2,739 6.7 -16.5°
Sets 23:44:52 0° 175° (S) 3,691 7.4 -17.1°
